Weather History for KFFT - February, 2014

Change the Weather History Date:

Wednesday, February 19, 2014

  Actual Average Record
Temperature  
Mean Temperature 48 °F 37 °F  
Max Temperature 55 °F 47 °F 76 °F (1939)
Min Temperature 40 °F 27 °F -10 °F (2015)
Degree Days  
Heating Degree Days 17 28  
Month to date heating degree days 693 563  
Since 1 July heating degree days 3838 3401  
Cooling Degree Days 0 0  
Month to date cooling degree days 0 0  
Year to date cooling degree days 0 0  
Moisture  
Dew Point 39 °F    
Average Humidity 71    
Maximum Humidity 100    
Minimum Humidity 41    
Precipitation  
Precipitation 0.07 in 0.14 in 2.85 in (2000)
Month to date precipitation 3.39 2.11  
Year to date precipitation 5.67 5.37  
Sea Level Pressure  
Sea Level Pressure 29.91 in    
Wind  
Wind Speed 8 mph (WSW)    
Max Wind Speed 18 mph    
Max Gust Speed 28 mph    
Visibility 9 miles    
Events Rain , Thunderstorm    
T = Trace of Precipitation, MM = Missing Value Source: NWS Daily Summary

Daily Weather History Graph

Daily Weather History Graph

Search for Another Location

Airport or City:

Trip Planner

Search our weather history database for the weather conditions in past years. The results will help you decide how hot, cold, wet, or windy it might be!

Date:

Astronomy

Feb. 19, 2014 Rise Set
Actual Time 7:24 AM EST 6:22 PM EST
Civil Twilight 6:58 AM EST 6:49 PM EST
Nautical Twilight 6:27 AM EST 7:20 PM EST
Astronomical Twilight 5:56 AM EST 7:50 PM EST
Moon 11:10 PM EST (2/19) 9:34 AM EST (2/19)
Length of Visible Light 11h 51m
Length of Day
10h 57m
Waning Gibbous, 80% of the Moon is Illuminated
Feb 19
Waning Gibbous
Feb 22
Last Quarter
Mar 1
New
Mar 8
First Quarter
Mar 16
Full

Hourly Weather History & Observations

Time (EST) Temp. Windchill Dew Point Humidity Pressure Visibility Wind Dir Wind Speed Gust Speed Precip Events Conditions
12:53 AM 48.0 °F - 35.1 °F 61% 29.80 in 10.0 mi SSW 5.8 mph - N/A   Overcast
1:14 AM 48.0 °F - 37.0 °F 66% 29.80 in 10.0 mi SSW 6.9 mph - N/A Thunderstorm Overcast
1:37 AM 48.9 °F - 43.0 °F 80% 29.79 in 10.0 mi SSW 10.4 mph - 0.04 in Rain Light Rain
1:53 AM 50.0 °F - 45.0 °F 83% 29.78 in 9.0 mi SSW 9.2 mph - 0.05 in Rain Light Rain
2:22 AM 51.1 °F - 45.0 °F 80% 29.78 in 8.0 mi SW 17.3 mph 20.7 mph 0.01 in Rain , Thunderstorm Light Rain
2:37 AM 51.1 °F - 46.0 °F 83% 29.78 in 10.0 mi SW 16.1 mph - 0.02 in   Overcast
2:53 AM 50.0 °F - 46.9 °F 89% 29.77 in 10.0 mi SW 11.5 mph - 0.02 in   Overcast
3:53 AM 48.9 °F - 46.9 °F 93% 29.76 in 10.0 mi SW 8.1 mph - N/A   Mostly Cloudy
4:53 AM 48.0 °F - 46.9 °F 96% 29.75 in 8.0 mi SSW 6.9 mph - N/A   Clear
5:53 AM 48.9 °F - 48.0 °F 97% 29.77 in 6.0 mi SW 10.4 mph - N/A   Clear
6:53 AM 50.0 °F - 48.9 °F 96% 29.80 in 6.0 mi WSW 10.4 mph - N/A   Clear
7:53 AM 50.0 °F - 48.9 °F 96% 29.83 in 4.0 mi WSW 8.1 mph - N/A   Clear
8:08 AM 50.0 °F - 48.0 °F 93% 29.84 in 4.0 mi West 8.1 mph - N/A   Mostly Cloudy
8:11 AM 50.0 °F - 48.0 °F 93% 29.84 in 4.0 mi West 5.8 mph - N/A   Scattered Clouds
8:53 AM 50.0 °F - 46.0 °F 86% 29.88 in 9.0 mi West 11.5 mph - N/A   Clear
9:53 AM 52.0 °F - 39.9 °F 63% 29.91 in 10.0 mi West 13.8 mph 25.3 mph N/A   Clear
10:53 AM 52.0 °F - 35.1 °F 53% 29.97 in 10.0 mi West 17.3 mph 26.5 mph N/A   Clear
11:53 AM 53.1 °F - 35.1 °F 50% 30.00 in 10.0 mi WNW 10.4 mph 23.0 mph N/A   Clear
12:53 PM 53.1 °F - 34.0 °F 48% 30.00 in 10.0 mi NW 10.4 mph - N/A   Clear
1:53 PM 54.0 °F - 34.0 °F 47% 30.00 in 10.0 mi NNW 8.1 mph - N/A   Clear
2:53 PM 55.0 °F - 32.0 °F 42% 29.99 in 10.0 mi NNW 9.2 mph - N/A   Clear
3:53 PM 55.0 °F - 33.1 °F 43% 30.03 in 10.0 mi NW 6.9 mph - N/A   Clear
4:53 PM 53.1 °F - 33.1 °F 47% 30.04 in 10.0 mi NNW 4.6 mph - N/A   Clear
5:53 PM 52.0 °F - 32.0 °F 47% 30.06 in 10.0 mi North 3.5 mph - N/A   Clear
6:53 PM 45.0 °F 43.5 °F 34.0 °F 65% 30.06 in 10.0 mi ENE 3.5 mph - N/A   Clear
7:53 PM 44.1 °F - 33.1 °F 65% 30.06 in 10.0 mi Calm Calm - N/A   Clear
8:53 PM 42.1 °F 38.4 °F 30.9 °F 65% 30.03 in 10.0 mi ESE 5.8 mph - N/A   Clear
9:53 PM 43.0 °F 39.5 °F 30.0 °F 60% 30.05 in 10.0 mi East 5.8 mph - N/A   Clear
10:53 PM 43.0 °F 38.8 °F 30.9 °F 62% 30.02 in 10.0 mi East 6.9 mph - N/A   Clear
11:53 PM 45.0 °F 39.7 °F 30.9 °F 58% 30.01 in 10.0 mi ESE 10.4 mph - N/A   Clear